Location: Melizzano
(41.1500°N, 14.5000°E)
Time: 12:02:53
(UTC+00:00)

Cosmos 2366 rocket - Pass Details

Date: 11 May 2021
Orbit: 955 x 996 km, 82.9° (Epoch: 19 June)

Event Time Altitude Azimuth Distance (km) Brightness Sun altitude
Rises 21:47:16 0° 355° (N) 3,651 8.2 -28.5°
Reaches altitude 10° 21:49:48 10° 358° (N) 2,705 7.2 -28.6°
Maximum altitude 21:55:57 67° 81° (E) 1,048 4.0 -29.0°
Enters shadow 21:56:00 67° 84° (E) 1,048 4.0 -29.0°
